TimePDT,TemperatureF,Dew PointF,Humidity,Sea Level PressureIn,VisibilityMPH,Wind Direction,Wind SpeedMPH,Gust SpeedMPH,PrecipitationIn,Events,Conditions,WindDirDegrees,DateUTC
12:56 AM,77.0,27.0,16,29.74,10.0,SSW,13.8,-,N/A,,Clear,200,2013-10-02 07:56:00
1:56 AM,75.9,27.0,16,29.74,10.0,South,10.4,-,N/A,,Clear,180,2013-10-02 08:56:00
2:56 AM,75.0,28.0,18,29.73,10.0,South,10.4,-,N/A,,Clear,190,2013-10-02 09:56:00
3:56 AM,75.9,32.0,20,29.73,10.0,South,13.8,-,N/A,,Scattered Clouds,190,2013-10-02 10:56:00
4:56 AM,71.1,30.9,23,29.75,10.0,SSE,4.6,-,N/A,,Scattered Clouds,160,2013-10-02 11:56:00
5:56 AM,70.0,32.0,25,29.76,10.0,South,5.8,-,N/A,,Scattered Clouds,190,2013-10-02 12:56:00
6:56 AM,66.9,34.0,30,29.77,10.0,Calm,Calm,-,N/A,,Scattered Clouds,0,2013-10-02 13:56:00
7:56 AM,71.1,34.0,26,29.78,10.0,WSW,5.8,-,N/A,,Partly Cloudy,240,2013-10-02 14:56:00
8:56 AM,75.0,35.1,23,29.79,10.0,Calm,Calm,-,N/A,,Partly Cloudy,0,2013-10-02 15:56:00
9:56 AM,81.0,37.0,21,29.78,10.0,SSE,15.0,21.9,N/A,,Partly Cloudy,160,2013-10-02 16:56:00
10:56 AM,84.0,36.0,18,29.77,10.0,South,17.3,-,N/A,,Partly Cloudy,180,2013-10-02 17:56:00
11:56 AM,86.0,35.1,16,29.74,10.0,South,16.1,26.5,N/A,,Clear,180,2013-10-02 18:56:00
12:56 PM,88.0,34.0,15,29.71,10.0,South,21.9,29.9,N/A,,Partly Cloudy,180,2013-10-02 19:56:00
1:56 PM,91.0,34.0,13,29.68,10.0,South,17.3,26.5,N/A,,Partly Cloudy,180,2013-10-02 20:56:00
2:56 PM,90.0,30.9,12,29.65,10.0,SW,19.6,28.8,N/A,,Partly Cloudy,220,2013-10-02 21:56:00
3:56 PM,90.0,28.9,11,29.64,10.0,SSW,18.4,28.8,N/A,,Partly Cloudy,210,2013-10-02 22:56:00
4:56 PM,88.0,30.0,12,29.64,10.0,SW,19.6,28.8,N/A,,Scattered Clouds,220,2013-10-02 23:56:00
5:56 PM,86.0,30.9,14,29.65,10.0,SSW,12.7,23.0,N/A,,Scattered Clouds,200,2013-10-03 00:56:00
6:56 PM,84.0,32.0,15,29.66,10.0,South,12.7,-,N/A,,Scattered Clouds,190,2013-10-03 01:56:00
7:56 PM,82.0,33.1,17,29.66,10.0,South,10.4,-,N/A,,Partly Cloudy,180,2013-10-03 02:56:00
8:56 PM,81.0,34.0,18,29.67,10.0,South,8.1,-,N/A,,Clear,170,2013-10-03 03:56:00
9:56 PM,79.0,34.0,20,29.67,10.0,South,5.8,-,N/A,,Clear,170,2013-10-03 04:56:00
10:56 PM,78.1,32.0,19,29.67,10.0,SW,8.1,-,N/A,,Clear,220,2013-10-03 05:56:00
11:56 PM,78.1,30.0,17,29.66,10.0,SSW,16.1,25.3,N/A,,Clear,200,2013-10-03 06:56:00